Location: Blue Mountain Vista Observatory
(40.6992°N, 75.9422°W)
Time: 08:14:13
(UTC-05:00)

Daily predictions for brighter satellites

Satellite Brightness Start Highest point End
(mag) Time Altitude Azimuth Time Altitude Azimuth Time Altitude Azimuth
SPOT 3 Rocket 3.9 18:04:12 10° SE 18:09:08 46° ENE 18:14:06 10° N
ATLAS 3B R/B 3.7 18:04:10 10° WSW 18:11:10 50° NW 18:17:55 10° NNE
Iridium 4 Rocket 4.4 18:08:35 10° NNE 18:12:17 21° ENE 18:15:45 10° SE
NOSS 3-2 (A) 3.8 18:08:26 10° SW 18:14:17 69° NW 18:20:51 10° NNE
Cosmos 1980 3.8 18:08:42 10° NNW 18:14:25 90° W 18:20:06 10° SSE
Cosmos 2233 Rocket 4.0 18:11:44 10° N 18:18:04 84° E 18:24:17 10° S
EO 1 Del DPAF 3.6 18:16:43 10° NNE 18:20:24 44° E 18:24:03 10° S
Cosmos 1420 Rocket 4.4 18:21:53 10° N 18:26:52 41° ENE 18:31:51 10° SE
Cosmos 405 2.9 18:24:19 10° S 18:27:47 73° E 18:31:18 10° NNE
Cosmos 1378 Rocket 4.2 18:24:38 10° NNE 18:28:38 32° ENE 18:32:37 10° SE
Landsat 4 3.6 18:27:32 10° NNE 18:31:18 80° ESE 18:35:03 10° S
NOAA 12 4.2 18:29:38 10° SSE 18:34:56 84° WSW 18:40:18 10° NNW
FengYun 1-2 T 4.3 18:29:41 10° SE 18:35:00 53° ENE 18:40:20 10° N
Cosmos 1464 Rocket 4.1 18:29:59 10° N 18:35:55 49° ENE 18:41:49 10° SSE
Sich 1 Rocket 4.3 18:32:41 10° SSE 18:36:41 32° E 18:40:41 10° NNE
OAO 2 Rocket 4.3 18:37:39 10° SW 18:42:02 32° SSE 18:45:28 15° ESE
COSMO-SKYMED 1 3.8 18:39:09 10° N 18:43:17 44° WNW 18:47:24 10° SW
Cosmos 1072 Rocket 4.5 18:41:05 10° N 18:47:15 67° E 18:53:30 10° SSE
Okean 2 Rocket 4.2 18:49:42 10° SE 18:53:04 22° E 18:56:27 10° NE
ARGOS Delta rocket 4.4 18:49:46 10° NNE 18:54:10 33° E 18:58:18 10° SSE
USA 215 3.4 18:49:59 10° NE 18:56:24 57° SE 19:02:48 10° SSW
Cosmos 468 4.4 18:51:31 10° SSW 18:56:46 76° ESE 19:02:01 10° NNE
SeaSat 1 2.9 18:53:05 14° ESE 18:56:51 39° ENE 19:01:26 10° N
Cosmos 2227 Rocket 3.4 18:51:59 10° SW 18:57:21 44° WNW 19:02:46 10° NNE
Cosmos 2237 Rocket 3.6 18:53:25 10° NW 18:58:39 41° WSW 19:03:53 10° S
SJ-6B 3.0 18:55:33 10° SE 18:59:08 45° ENE 19:02:48 10° N
Envisat 3.4 18:54:43 10° SE 18:59:24 39° ENE 19:04:07 10° N
Thor Agena Rocket 3.7 18:56:12 10° NNE 19:01:04 44° E 19:05:52 10° S
SL-16 R/B 2.1 18:57:05 10° NNW 19:02:47 85° ENE 19:08:26 10° SSE
Tiangong 2 2.2 19:01:12 10° W 19:04:13 39° SSW 19:05:47 22° SSE
FREGAT/IRIS 2.6 19:03:06 10° S 19:06:02 76° W 19:09:01 10° NNW
Cosmos 44 Rocket 3.3 19:01:22 10° NNW 19:06:26 81° ENE 19:11:23 11° SE
USA 32 3.9 19:01:42 10° S 19:06:52 66° E 19:12:03 10° N
Cosmos 1674 Rocket 4.4 19:03:42 10° NNW 19:07:55 51° W 19:12:05 10° S
Cosmos 1269 Rocket 4.1 19:03:02 10° S 19:08:10 54° ESE 19:13:20 10° NNE
H-2A R/B 3.6 19:04:59 10° S 19:08:49 54° W 19:12:40 10° NNW
HJ-1C 3.3 19:07:42 10° SSE 19:11:06 78° ENE 19:14:31 10° N
Cosmos 2297 Rocket 3.6 19:06:04 10° SW 19:11:20 39° WNW 19:16:39 10° N
Cosmos 2034 Rocket 4.0 19:05:01 10° N 19:11:23 69° E 19:17:42 10° SSE
Cosmos 1891 Rocket 4.4 19:07:04 10° N 19:13:20 85° E 19:19:26 10° S
Okean 1 3.1 19:09:42 10° N 19:13:42 72° E 19:17:39 10° SSE
Cosmos 1908 Rocket 3.9 19:11:06 10° SSW 19:15:33 70° W 19:20:02 10° N
Okean 3 4.4 19:11:39 10° NNW 19:15:41 50° W 19:19:44 10° SSW
Cosmos 1633 3.7 19:15:49 10° SSW 19:19:14 43° W 19:22:40 10° N
Cosmos 921 Rocket 3.0 19:16:00 10° NNW 19:20:32 72° ENE 19:23:42 19° SSE
Cosmos 1603 4.1 19:15:51 10° N 19:21:11 41° ENE 19:22:38 35° E
ERS-2 3.0 19:18:13 10° S 19:21:48 50° W 19:25:24 10° NNW
Cosmos 1634 Rocket 4.5 19:19:03 10° N 19:24:39 35° ENE 19:25:22 34° E
CZ-2D R/B 3.1 19:22:36 13° SSE 19:26:07 83° ENE 19:30:01 10° N
Cosmos 1816 Rocket 4.5 19:20:40 10° S 19:26:55 63° E 19:33:12 10° NNE
USA 267 4.0 19:27:10 28° ENE 19:29:33 36° NNE 19:35:22 10° NW
Resurs 1-3 3.9 19:30:55 44° NE 19:30:55 44° NE 19:34:40 10° N
CENTAUR R/B 2.9 19:26:49 10° SW 19:32:47 65° NW 19:39:40 10° NNE
CZ-4C R/B 3.7 19:30:14 10° NNW 19:36:22 30° NE 19:37:37 29° ENE
Cosmos 1602 3.7 19:35:02 10° S 19:38:56 81° W 19:42:51 10° N
SL-8 R/B 4.3 19:34:26 10° W 19:39:04 49° NNW 19:40:31 36° NNE
Cosmos 2263 Rocket 4.3 19:37:05 10° SSE 19:37:15 11° SSE 19:37:15 11° SSE
Resurs 01 Rocket 1.7 19:42:38 56° NE 19:42:38 56° NE 19:46:26 10° N
Cosmos 1975 Rocket 3.2 19:38:28 10° N 19:42:55 77° W 19:46:31 15° S
Cosmos 1331 Rocket 4.2 19:41:32 10° N 19:46:26 52° NE 19:46:26 52° NE
Spot 2 Rocket 3.5 19:49:48 57° NE 19:49:48 57° NE 19:54:21 10° N
Meteor 1-19 Rocket 4.1 19:45:10 10° N 19:50:43 87° W 19:54:50 19° S
Geosat 3.8 19:51:11 50° NE 19:52:34 82° ESE 19:57:35 10° SSW
Meteor 1-11 Rocket 3.5 19:48:01 10° S 19:53:33 75° E 19:59:14 10° NNE
Cosmos 1437 Rocket 4.0 19:50:02 10° SSW 19:53:52 42° WNW 19:57:48 10° N
Meteor 2-4 Rocket 3.6 19:48:21 10° N 19:54:10 70° E 19:54:53 63° SE
Cosmos 2227 4.2 19:53:43 10° SSW 19:59:27 79° WNW 20:03:13 22° NNE
Gbstr 26 Del rocket 4.2 19:56:52 10° SW 19:58:46 29° SW 19:58:46 29° SW
COSMOS 2455 3.2 19:55:05 10° S 19:59:33 47° SSE 19:59:33 47° SSE
Cosmos 1939 Rocket 4.4 20:05:46 31° NNW 20:05:46 31° NNW 20:07:58 10° NNW
ATLAS CENTAUR R/B 4.0 20:21:30 10° NNW 20:21:59 13° NNW 20:21:59 13° NNW
Cosmos 1943 4.0 20:23:20 10° NNW 20:27:09 44° NNW 20:27:09 44° NNW
SeaSat 1 4.2 20:32:53 23° SW 20:34:26 27° WSW 20:38:37 10° NW
USA 215 4.0 20:37:20 37° N 20:39:17 46° NNW 20:45:27 10° WSW
USA 267 4.2 21:14:32 43° NW 21:14:32 43° NW 21:18:44 10° NW
CZ-4C R/B 3.8 21:18:17 10° NW 21:22:51 43° NW 21:22:51 43° NW
